37P/Forbes (2011)

Japanese version
Home page
Updated on June 11, 2016

---------------------------------------------------------------------

* Profile

* Pictures

* Orbital Elements

Epoch 2011 Dec. 25.0 TT = JDT 2455920.5
T 2011 Dec. 11.02101 TT                                 Kobayashi
q   1.5753136            (2000.0)            P               Q
n   0.15516889     Peri.  329.38797     +0.25339694     +0.96108583
a   3.4297801      Node   315.03094     -0.85301985     +0.16835767
e   0.5406955      Incl.    8.95585     -0.45623144     +0.21901993
P   6.35
From 695 observations 1993 Mar. 21-2012 Dec. 9, mean residual 0".8.
     Nongravitational parameters A1 = +0.67, A2 = -0.0330.

* Finding Charts

* Magnitudes Graph

        m1 =   9.0 + 5 log d +  20 log r  [   ,284]  (             - 2012 Sept.20)
        m1 = -32   + 5 log d + 100 log r  [284,345]  (2012 Sept.20 - 2012 Nov. 20)
        m1 =   9.0 + 5 log d +  20 log r  [345,   ]  (2012 Nov. 20 -             )

---------------------------------------------------------------------

The orbital elements are published on M.P.E.C. 2015-M77.
The charts are made with StellaNavigator Ver.8 (AstroArts).
The magnitudes graphs are made with Comet for Windows.

---------------------------------------------------------------------

Copyright(C) Seiichi Yoshida (comet@aerith.net). All rights reserved.